FW3943 Weather Reports


time (UTC)temp
F
wind
direction
speed
knots
gust
knots
rain 1hr
in
rain 24hr
in
rain mn
in
humidity
%
barometer
mb
20260505051526 43 216 3.5 9.6 0.00 0.23 0.00 100 1008.8
20260505041516 44 246 3.5 7.8 0.00 0.24 0.00 100 1007.8
20260505040014 44 202 3.5 7.8 0.00 0.24 0.00 100 1007.6
20260505034512 44 237 5.2 8.7 0.00 0.26 0.00 100 1007.5
20260505033010 45 229 6.1 11.3 0.00 0.26 0.00 100 1007.3
20260505031509 45 205 6.1 13.0 0.00 0.26 0.00 100 1007.0
20260505030003 45 235 7.8 12.2 0.00 0.26 0.00 100 1006.4
20260505024503 45 219 7.8 13.0 0.00 0.28 0.26 100 1006.6
20260505023001 45 215 7.0 10.4 0.00 0.28 0.26 100 1006.2
20260505021600 45 207 6.1 11.3 0.00 0.28 0.26 100 1006.2
20260505020100 46 202 7.0 13.0 0.00 0.28 0.26 100 1006.0
20260505014557 45 218 5.2 8.7 0.00 0.28 0.26 100 1006.0
20260505013058 46 226 3.5 9.6 0.00 0.28 0.26 100 1005.9
20260505011610 46 215 4.3 10.4 0.00 0.28 0.26 100 1005.9
20260505010053 47 213 4.3 8.7 0.00 0.28 0.26 100 1005.7
20260505004555 47 198 4.3 7.8 0.00 0.30 0.26 100 1005.6
20260505003054 48 166 3.5 10.4 0.00 0.30 0.26 100 1005.4
20260505001604 48 197 6.1 12.2 0.00 0.30 0.26 100 1005.4
20260505000104 49 228 3.5 9.6 0.00 0.30 0.26 100 1005.4
20260504234546 49 216 2.6 7.0 0.00 0.33 0.26 100 1004.9
20260504233102 48 208 7.0 12.2 0.00 0.33 0.26 100 1004.6
20260504231545 46 156 3.5 8.7 0.00 0.33 0.26 100 1004.5
20260504230043 47 188 7.0 12.2 0.00 0.33 0.26 100 1004.5
20260504224542 51 217 7.8 13.0 0.00 0.41 0.26 100 1004.2
20260504223037 55 229 7.8 15.6 0.00 0.41 0.26 100 1003.7
20260504221536 56 242 8.7 21.7 0.00 0.41 0.26 100 1003.7
20260504220035 56 227 7.8 20.9 0.00 0.41 0.26 100 1003.5
20260504214534 56 257 12.2 21.7 0.00 0.56 0.26 100 1003.5
20260504213037 56 233 10.4 15.6 0.00 0.56 0.26 100 1003.3
20260504211531 56 250 8.7 19.1 0.00 0.56 0.26 100 1003.2
20260504210031 56 248 12.2 21.7 0.00 0.56 0.26 100 1003.0
20260504204530 56 252 13.9 21.7 0.00 0.64 0.26 100 1002.7
20260504203027 56 237 7.8 20.9 0.00 0.64 0.26 100 1002.6
20260504201525 56 241 9.6 20.0 0.00 0.64 0.26 100 1002.5
20260504200023 56 248 13.0 20.0 0.00 0.64 0.26 100 1002.3
20260504194527 56 240 14.8 26.9 0.00 0.68 0.26 100 1001.7
20260504193020 55 215 12.2 21.7 0.00 0.68 0.26 100 1001.3
20260504191520 56 286 12.2 21.7 0.00 0.68 0.26 100 1001.1
20260504190018 55 276 14.8 23.5 0.00 0.68 0.26 100 1001.1
20260504184513 54 283 15.6 25.2 0.00 0.71 0.26 100 1000.9
20260504183013 54 232 13.0 21.7 0.00 0.71 0.26 100 1001.0
20260504181511 54 290 14.8 24.3 0.00 0.71 0.26 100 1000.9
20260504180007 53 251 12.2 21.7 0.00 0.71 0.26 100 1000.9
20260504174509 52 231 13.0 26.9 0.00 0.71 0.26 100 1000.8
20260504173005 52 225 11.3 27.8 0.00 0.71 0.26 100 1000.7
20260504171601 50 272 16.5 26.1 0.00 0.71 0.26 100 1000.5
20260504171501 50 283 14.8 26.1 0.00 0.71 0.26 100 1000.6
20260504170158 50 233 13.9 26.9 0.00 0.71 0.26 100 1000.3
20260504120105 39 270 19.1 33.0 0.04 0.69 0.24 100 992.3
20260504081518 37 258 13.9 29.5 0.02 0.56 0.11 100 982.2